EDT,Max TemperatureF,Mean TemperatureF,Min TemperatureF,Max Dew PointF,MeanDew PointF,Min DewpointF,Max Humidity, Mean Humidity, Min Humidity, Max Sea Level PressureIn, Mean Sea Level PressureIn, Min Sea Level PressureIn, Max VisibilityMiles, Mean VisibilityMiles, Min VisibilityMiles, Max Wind SpeedMPH, Mean Wind SpeedMPH, Max Gust SpeedMPH,PrecipitationIn, CloudCover, Events, WindDirDegrees
2012-10-1,88,82,77,77,74,71,89,79,69,29.88,29.81,29.78,10,8,1,22,12,28,0.69,6,Thunderstorm,202
2012-10-2,88,81,75,77,74,72,94,82,69,30.06,29.94,29.86,10,8,0,21,13,31,1.84,6,Fog-Rain-Thunderstorm,193
2012-10-3,89,83,77,79,76,73,90,79,70,30.13,30.07,30.03,10,10,10,14,6,,0.00,3,,105
2012-10-4,90,84,80,78,76,73,85,76,63,30.14,30.09,30.04,10,9,1,21,10,31,0.15,4,Rain,90
2012-10-5,90,84,80,77,75,73,89,76,59,30.06,30.00,29.92,10,10,10,17,9,18,0.02,3,,80
2012-10-6,90,84,79,77,75,72,85,74,63,29.96,29.91,29.86,10,10,9,12,7,30,0.06,5,Rain-Thunderstorm,74
2012-10-7,90,84,79,76,75,72,85,73,61,29.96,29.92,29.87,10,10,10,12,6,18,0.00,3,Thunderstorm,64
2012-10-8,90,84,82,75,74,74,79,74,67,29.99,29.96,29.91,10,10,10,7,5,,0.00,0,,76
2012-10-9,88,82,77,77,75,73,89,80,65,30.02,29.99,29.94,10,8,1,26,5,33,1.23,4,Rain-Thunderstorm,48
2012-10-10,89,83,79,76,74,72,85,75,61,30.06,30.02,29.98,10,10,7,10,4,,0.01,4,Rain-Thunderstorm,52
2012-10-11,88,84,80,75,70,66,82,64,49,30.11,30.05,30.01,10,10,10,14,9,22,0.00,2,,51
2012-10-12,87,82,78,69,67,63,72,60,49,30.11,30.07,30.03,10,10,10,16,12,22,0.00,1,,39
2012-10-13,86,82,78,72,68,64,74,65,53,30.09,30.04,29.99,10,10,10,18,14,26,0.00,3,,43
2012-10-14,88,82,78,75,73,70,79,74,63,30.01,29.95,29.89,10,10,7,16,11,25,0.00,3,Rain,49
2012-10-15,88,81,75,76,74,72,94,81,63,29.92,29.86,29.81,10,8,1,15,7,21,0.98,6,Rain-Thunderstorm,64
2012-10-16,87,83,80,75,72,69,84,72,57,29.87,29.82,29.79,10,10,10,12,4,,0.00,2,,24
2012-10-17,87,82,77,75,73,71,89,78,63,29.88,29.84,29.81,10,9,2,18,5,25,0.12,4,Rain-Thunderstorm,92
2012-10-18,86,80,75,76,74,70,94,80,67,29.90,29.85,29.80,10,9,2,18,5,29,0.42,5,Rain-Thunderstorm,137
2012-10-19,89,83,78,75,74,72,89,74,63,29.90,29.87,29.83,10,10,1,10,5,,0.19,4,Rain,194
2012-10-20,88,83,79,74,72,70,84,72,61,29.94,29.89,29.85,10,10,10,12,4,,0.00,2,,344
2012-10-21,88,81,75,74,72,67,88,72,59,29.98,29.93,29.87,10,10,10,15,6,22,0.01,2,,47
2012-10-22,86,82,78,70,67,64,74,63,53,29.98,29.95,29.91,10,10,10,17,12,26,0.00,1,,57
2012-10-23,86,82,78,72,69,66,76,66,51,29.95,29.91,29.86,10,10,10,18,12,26,0.00,2,,58
2012-10-24,87,82,78,73,71,67,82,71,57,29.90,29.85,29.79,10,10,10,20,13,31,0.00,3,,45
2012-10-25,82,77,72,72,70,66,89,77,66,29.80,29.73,29.66,10,9,0,22,15,34,0.40,6,Rain,21
2012-10-26,82,80,78,70,69,66,74,69,61,29.68,29.65,29.62,10,10,10,23,20,33,0.00,6,,335
2012-10-27,84,81,78,68,65,63,68,60,49,29.78,29.70,29.65,10,10,10,23,18,32,0.00,1,,312
2012-10-28,84,78,75,68,64,57,76,61,53,29.84,29.79,29.75,10,10,10,23,15,31,0.01,3,Rain,304
2012-10-29,75,72,68,61,56,51,69,56,49,29.91,29.86,29.82,10,10,10,20,16,31,0.00,5,,317
2012-10-30,75,72,69,59,55,50,61,55,46,30.04,29.95,29.88,10,10,10,18,12,23,0.00,6,,322
2012-10-31,79,72,66,58,55,54,66,54,44,30.09,30.04,30.01,10,10,10,9,6,,0.00,2,,307